Regional Weather Roundup
Issued by NWS

Home | Current Version | Previous Version | Text Only | Print | Product List | Glossary On
Versions: 1 2 3 4 5 6 7 8 9 10 11 12 13 14 15 16 17 18 19 20 21 22 23 24 25 26 27 28 29 30 31 32 33 34 35 36 37 38 39 40 41 42 43 44 45 46 47 48 49 50
165
ASUS43 KMKX 141100
RWRWI

WISCONSIN REGIONAL WEATHER ROUNDUP
NATIONAL WEATHER SERVICE MILWAUKEE/SULLIVAN WI
500 AM CST SUN FEB 14 2016

NOTE: "FAIR" INDICATES FEW OR NO CLOUDS BELOW 12,000 FEET WITH NO
SIGNIFICANT WEATHER AND/OR OBSTRUCTIONS TO VISIBILITY.

WIZ001-002-006>008-014>016-023>028-141200-
NORTHWEST WISCONSIN

CITY           SKY/WX    TMP DP  RH WIND       PRES   REMARKS
SUPERIOR ARPT  CLOUDY   -10 -15  79 CALM      30.24F
ASHLAND        CLOUDY   -15 -20  78 S3        30.26F
HAYWARD        CLOUDY    -9 -15  75 CALM      30.20F
SIREN          CLOUDY     6  -9  50 SE10      30.18F WCI  -8
CUMBERLAND     CLOUDY     1 -11  55 SE7       30.18F WCI -11
RICE LAKE      CLOUDY     2 -10  56 SE10      30.22F WCI -13
CHETEK         CLOUDY    -1 -11  61 SE7       30.22F WCI -14
LADYSMITH      CLOUDY    -6 -15  67 E7        30.25F WCI -21
EAU CLAIRE     NOT AVBL
MENOMONIE      CLOUDY     5  -7  59 SE9       30.23F WCI  -9
NEW RICHMOND   CLOUDY     6  -6  57 SE9       30.18F WCI  -8
OSCEOLA        CLOUDY     7  -5  56 SE10      30.21F WCI  -7
$$

WIZ003>005-009-010-017-018-141200-
NORTH CENTRAL WISCONSIN

CITY           SKY/WX    TMP DP  RH WIND       PRES   REMARKS
MANITOWISH WTR CLOUDY   -22 -28  76 CALM      30.22F
ARBOR VITAE    CLOUDY   -16 -22  74 CALM      30.22F
WOODRUFF       CLOUDY   -16 -22  74 CALM      30.22F
RHINELANDER    CLOUDY   -18 -22  82 E3        30.23F
EAGLE RIVER    CLOUDY   -20 -28  68 CALM      30.24F
LAND O LAKES   CLEAR    -26 -32  72 CALM      30.25S
PHILLIPS       CLOUDY   -22 -28  74 CALM      30.22F
TOMAHAWK       CLOUDY   -23 -29  73 CALM      30.26S
MEDFORD        CLOUDY    -6 -14  70 SE6       30.23S WCI -19
MERRILL        CLOUDY   -18 -24  75 CALM      30.29S
$$

WIZ029-030-035-036-043>047-141200-
CENTRAL WISCONSIN

CITY           SKY/WX    TMP DP  RH WIND       PRES   REMARKS
WAUSAU         CLOUDY   -12 -18  74 E5        30.28F WCI -24
MOSINEE        NOT AVBL
MARSHFIELD     PTCLDY    -8 -16  67 E6        30.25F WCI -21
STEVENS POINT  CLOUDY   -16 -22  76 CALM      30.31F
WAUPACA        CLOUDY   -11 -17  75 CALM      30.36S
WAUTOMA        NOT AVBL
WISC RAPIDS    PTCLDY    -7 -15  68 SE5       30.31F WCI -18
CAMP DOUGLAS   NOT AVBL
$$

WIZ011>013-019>022-031-037>040-048>050-141200-
NORTHEAST WISCONSIN

CITY           SKY/WX    TMP DP  RH WIND       PRES   REMARKS
ANTIGO         PTCLDY   -15 -21  76 CALM      30.26F
SHAWANO        CLOUDY    -8 -13  78 CALM      30.36S
OCONTO         CLOUDY   -13 -17  84 CALM      30.39S
STURGEON BAY   CLOUDY    -2 -11  65 CALM      30.38F
GREEN BAY      CLOUDY   -12 -16  82 CALM      30.37F
MANITOWOC      NOT AVBL
APPLETON       NOT AVBL
CLINTONVILLE   CLOUDY    -9 -17  70 CALM      30.35S
OSHKOSH        CLOUDY    -4 -11  72 S5        30.35S WCI -15
$$

WIZ032>034-041-042-053>061-141200-
SOUTHWEST WISCONSIN

CITY           SKY/WX    TMP DP  RH WIND       PRES   REMARKS
LA CROSSE      CLOUDY    10  -3  55 E7        30.25F WCI  -1
SPARTA         CLOUDY     7  -4  62 E6        30.27F WCI  -3
VIROQUA        CLOUDY     7  -3  62 SE12      30.21F WCI  -8
BOSCOBEL       CLOUDY     9   0  67 VRB5      30.28F WCI   1
PRAIRIE DU CHI MIX PCPN  12   4  70 E9        30.25F WCI   0
PLATTEVILLE    CLOUDY    13   5  72 SE10      30.26F WCI   0
$$

WIZ056-057-062-063-064-067-068-141200-
SOUTH CENTRAL WISCONSIN

CITY           SKY/WX    TMP DP  RH WIND       PRES   REMARKS
REEDSBURG      CLOUDY     1  -6  71 CALM      30.30F
BARABOO/DELLS  CLOUDY    -3 -10  73 CALM      30.29F
LONE ROCK      NOT AVBL
MINERAL POINT  CLOUDY    14   1  57 SE10      30.25F WCI   1
MADISON        CLOUDY     7  -4  60 SE8       30.31F WCI  -6
MIDDLETON      CLOUDY    10  -1  63 SE8       30.32F WCI  -2
WATERTOWN      CLOUDY     0  -6  75 CALM      30.35F
MONROE         CLOUDY    12   3  67 SE8       30.28F WCI   1
JANESVILLE     CLOUDY    14   1  57 SE6       30.35F WCI   5
$$

WIZ051-052-058>065-066-070>072-141200-
SOUTHEAST WISCONSIN

CITY           SKY/WX    TMP DP  RH WIND       PRES   REMARKS
MILWAUKEE      CLOUDY     5  -3  69 CALM      30.37F
WAUKESHA       CLOUDY    -4  -8  84 CALM      30.37S
MILWAUKEE/TIMM PTCLDY     1  -6  71 CALM      30.39S
RACINE         CLOUDY     6  -3  66 CALM      30.39F
BURLINGTON     CLOUDY    -2  -5  84 CALM      30.37F
KENOSHA        CLOUDY     4  -3  73 CALM      30.37F
FOND DU LAC    CLOUDY    -9 -15  75 S5        30.35F WCI -20
SHEBOYGAN      CLOUDY    -4 -10  75 CALM      30.36F
WEST BEND      CLOUDY    -6  -9  84 CALM      30.36F
JUNEAU         CLOUDY    -1  -8  73 SE6       30.35F WCI -13
$$

LSZ147-162-141200-
LAKE SUPERIOR

STATION/POSITION TIME  TEMP    WIND        PRES    WAVE
                       AIR SEA DIR/SP/G            HT/PER
                 (UTC) (F)     (DEG/KT/KT) (MB)    (FT/S)
DEVILS ISLAND    1000    5     180/  6/  7 1027.5F
SAXON HARBOR     0840  -17                 1026.8F
$$

LMZ867-665-643>646-141200-
LAKE MICHIGAN

STATION/POSITION TIME  TEMP    WIND        PRES    WAVE
                       AIR SEA DIR/SP/G            HT/PER
                 (UTC) (F)     (DEG/KT/KT) (MB)    (FT/S)
CHAMBERS ISLAND  1000    0     180/  2/  6 1028.8F
SISTER BAY       1019    1        CALM       N/A
ALGOMA LAKESHORE 0841             CALM       N/A
KEWAUNEE LAKESHO 1000   -3     300/  6/  6 1028.0F
SHEBOYGAN LAKESH 1000    8     260/  3/  4 1030.6F
PORT WASHINGTON  1040    3     280/  5/  6 1029.8F
MILWAUKEE LAKESH 1010   12     300/  3/  3   N/A
KENOSHA   LAKESH 1000   10     260/  5/  6 1028.8F
$$

TC  - TEMPERATURE IN CELSIUS
VSB - VISIBILITY IN STATUTE MILES
WCI - WIND CHILL INDEX
HX  - HEAT INDEX





USA.gov is the U.S. government's official web portal to all federal, state and local government web resources and services.